Regional Weather Roundup
Issued by NWS

Home | Current Version | Previous Version | Text Only | Print | Product List | Glossary On
Versions: 1 2 3 4 5 6 7 8 9 10 11 12 13 14 15 16 17 18 19 20 21 22 23 24 25 26 27 28
000
ASUS46 KPQR 031210
RWROR

OREGON REGIONAL WEATHER ROUNDUP
NATIONAL WEATHER SERVICE PORTLAND OR
400 AM PST SAT DEC 03 2016

NOTE: "FAIR" INDICATES FEW OR NO CLOUDS BELOW 12,000 FEET WITH
NO SIGNIFICANT WEATHER AND/OR OBSTRUCTIONS TO VISIBILITY.

ORZ001>013-031300-
NORTHWEST OREGON


CITY           SKY/WX    TMP DP  RH WIND       PRES   REMARKS
ASTORIA        CLOUDY    46  41  82 CALM      30.31R
6HR MIN TEMP:  46; 6HR MAX TEMP:  51; 6HR PCP:  0.02;

NEWPORT        PTCLDY    46  45  93 CALM      30.39S
PORTLAND       MOCLDY    44  42  93 NW5       30.35R
6HR MIN TEMP:  44; 6HR MAX TEMP:  48; 6HR PCP:  0.01;

VANCOUVER WA   CLOUDY    40  39  97 CALM      30.34R
6HR MIN TEMP:  39; 6HR MAX TEMP:  47; 6HR PCP:  0.04;

SCAPPOOSE      CLOUDY    41  41 100 S3        30.32S
6HR MIN TEMP:  39; 6HR MAX TEMP:  45; 6HR PCP: TRACE;

HILLSBORO      CLOUDY    44  43  96 NW5       30.34R
6HR MIN TEMP:  44; 6HR MAX TEMP:  45; 6HR PCP: TRACE;

AURORA         PTCLDY    44  41  89 SW6       30.35S
6HR MIN TEMP:  43; 6HR MAX TEMP:  47; 6HR PCP: TRACE;

MCMINNVILLE    CLOUDY    42  40  92 SW9       30.36R FOG
6HR MIN TEMP:  38; 6HR MAX TEMP:  46; 6HR PCP:  0.01;

SALEM          LGT RAIN  45  42  89 S5        30.35R
6HR MIN TEMP:  43; 6HR MAX TEMP:  46; 6HR PCP:  0.03;

CORVALLIS        N/A     43  39  87 CALM      30.37S VSB 1/4
EUGENE         CLOUDY    40  38  93 SW3       30.38
6HR MIN TEMP:  38; 6HR MAX TEMP:  48;

$$

ORZ021-028-031300-
SOUTHWEST OREGON


CITY           SKY/WX    TMP DP  RH WIND       PRES   REMARKS
NORTH BEND     CLOUDY    46  45  93 SE3       30.41R VSB 1/2
6HR MIN TEMP:  45; 6HR MAX TEMP:  48; 6HR PCP:  0.02;

BROOKINGS      CLOUDY    48  47  96 CALM      30.38S
ROSEBURG       CLOUDY    45  43  93 CALM      30.40R
6HR MIN TEMP:  44; 6HR MAX TEMP:  47; 6HR PCP: TRACE;

SEXTON SUMMIT  FOG       36  36 100 NW6       30.31S VSB 1/4 WCI  31
6HR MIN TEMP:  35; 6HR MAX TEMP:  38;

MEDFORD        CLOUDY    42  40  92 NW3       30.39R
6HR MIN TEMP:  42; 6HR MAX TEMP:  43;

$$

ORZ014>016-041-031300-
COLUMBIA GORGE


CITY           SKY/WX    TMP DP  RH WIND       PRES   REMARKS
TROUTDALE      MOCLDY    46  43  89 CALM      30.33S
6HR MIN TEMP:  46; 6HR MAX TEMP:  49; 6HR PCP: TRACE;

THE DALLES     CLOUDY    51  40  65 NW9       30.22R
6HR MIN TEMP:  47; 6HR MAX TEMP:  51; 6HR PCP: TRACE;

$$

ORZ029>031-041-044-049-050-061>064-502-503-505>511-031300-
EASTERN OREGON


CITY           SKY/WX    TMP DP  RH WIND       PRES   REMARKS
REDMOND        PTCLDY    41  30  65 NW7       30.20R
6HR MIN TEMP:  31; 6HR MAX TEMP:  43;

BEND           PTCLDY    36  32  87 E6        30.21R WCI  31
PRINEVILLE     PTCLDY    39  32  75 VRB3G15   30.22R
KLAMATH FALLS  CLOUDY    34  26  72 S9        30.28F WCI  27
6HR MIN TEMP:  29; 6HR MAX TEMP:  34;

LAKEVIEW       CLOUDY    32  21  64 S12       30.29S WCI  23
HERMISTON      CLOUDY    47  36  65 SW14      30.17S
6HR MIN TEMP:  43; 6HR MAX TEMP:  50;

PENDLETON      CLOUDY    44  33  65 W21G30    30.17S
6HR MIN TEMP:  42; 6HR MAX TEMP:  47;

JOHN DAY       CLOUDY    34  31  91 E9        30.21R WCI  26
MEACHAM        CLOUDY    36  32  85 VRB5      30.15R WCI  32
6HR MIN TEMP:  33; 6HR MAX TEMP:  38; 6HR PCP:  0.11;

LA GRANDE      CLOUDY    34  25  69 S15       30.18F WCI  24
6HR MIN TEMP:  34; 6HR MAX TEMP:  36;

BAKER CITY     CLOUDY    30  27  88 NE3       30.21S
6HR MIN TEMP:  30; 6HR MAX TEMP:  31; 6HR PCP: TRACE;

BURNS          CLOUDY    30  26  85 NE3       30.22S
6HR MIN TEMP:  30; 6HR MAX TEMP:  32;

ROME             N/A     36  19  50 S8        30.23R WCI  30
6HR MIN TEMP:  33; 6HR MAX TEMP:  36;

ONTARIO        CLOUDY    35  27  72 NE3       30.28R
6HR MIN TEMP:  34; 6HR MAX TEMP:  36;

$$




USA.gov is the U.S. government's official web portal to all federal, state and local government web resources and services.